Hourly Weather Rudavin

Today, 29 July, Thursday

Time Temperature Precipitation Wind Pressure Humidity
00:00 +22°C° 0 mm 1 mps 745 mmHg 70%
01:00 +21°C° 0 mm 2 mps 745 mmHg 72%
02:00 +20°C° 0 mm 2 mps 745 mmHg 74%
03:00 +20°C° 0 mm 2 mps 745 mmHg 74%
04:00 +20°C° 0 mm 2 mps 744 mmHg 75%
05:00 +21°C° 0 mm 2 mps 744 mmHg 75%
06:00 +21°C° 0.2 mm 2 mps 744 mmHg 76%
07:00 +23°C° 0.2 mm 2 mps 744 mmHg 76%
08:00 +24°C° 0.2 mm 2 mps 744 mmHg 77%
09:00 +24°C° 0.2 mm 2 mps 744 mmHg 75%
10:00 +25°C° 0.2 mm 2 mps 744 mmHg 74%
11:00 +25°C° 0.2 mm 2 mps 745 mmHg 73%
12:00 +26°C° 0 mm 3 mps 745 mmHg 69%
13:00 +27°C° 0 mm 4 mps 745 mmHg 64%
14:00 +28°C° 0 mm 4 mps 745 mmHg 60%
15:00 +27°C° 0.2 mm 4 mps 745 mmHg 64%
16:00 +27°C° 0.2 mm 4 mps 745 mmHg 67%
17:00 +26°C° 0.2 mm 4 mps 744 mmHg 71%
18:00 +25°C° 0.2 mm 4 mps 745 mmHg 74%
19:00 +24°C° 0.2 mm 3 mps 745 mmHg 77%
20:00 +23°C° 0.2 mm 2 mps 745 mmHg 80%
21:00 +21°C° 0 mm 2 mps 745 mmHg 81%
22:00 +20°C° 0 mm 2 mps 745 mmHg 81%
23:00 +19°C° 0 mm 2 mps 746 mmHg 82%

Tomorrow, 30 July, Friday

Time Temperature Precipitation Wind Pressure Humidity
00:00 +19°C° 0 mm 2 mps 746 mmHg 81%
01:00 +19°C° 0 mm 2 mps 746 mmHg 79%
02:00 +19°C° 0 mm 2 mps 746 mmHg 78%
03:00 +18°C° 0 mm 2 mps 746 mmHg 81%
04:00 +18°C° 0 mm 2 mps 746 mmHg 84%
05:00 +17°C° 0 mm 2 mps 746 mmHg 86%
06:00 +18°C° 0 mm 3 mps 746 mmHg 80%
07:00 +20°C° 0 mm 3 mps 746 mmHg 73%
08:00 +22°C° 0 mm 3 mps 746 mmHg 66%
09:00 +24°C° 0 mm 3 mps 746 mmHg 60%
10:00 +25°C° 0 mm 4 mps 746 mmHg 54%
11:00 +27°C° 0 mm 4 mps 746 mmHg 48%
12:00 +27°C° 0 mm 4 mps 746 mmHg 46%
13:00 +28°C° 0 mm 4 mps 745 mmHg 45%
14:00 +28°C° 0 mm 4 mps 745 mmHg 44%
15:00 +29°C° 0 mm 4 mps 745 mmHg 45%
16:00 +29°C° 0 mm 4 mps 744 mmHg 46%
17:00 +29°C° 0 mm 4 mps 744 mmHg 46%
18:00 +27°C° 0 mm 3 mps 744 mmHg 53%
19:00 +25°C° 0 mm 3 mps 744 mmHg 59%
20:00 +23°C° 0 mm 2 mps 744 mmHg 66%
21:00 +21°C° 0 mm 2 mps 744 mmHg 68%
22:00 +21°C° 0 mm 1 mps 744 mmHg 70%
23:00 +20°C° 0 mm 1 mps 744 mmHg 72%

Day after tomorrow, 31 July, Saturday

Time Temperature Precipitation Wind Pressure Humidity
00:00 +20°C° 0 mm 1 mps 744 mmHg 73%
01:00 +19°C° 0 mm 1 mps 744 mmHg 73%
02:00 +19°C° 0 mm 1 mps 744 mmHg 74%
03:00 +18°C° 0 mm 2 mps 744 mmHg 74%
04:00 +18°C° 0 mm 2 mps 744 mmHg 73%
05:00 +17°C° 0 mm 2 mps 744 mmHg 73%
06:00 +19°C° 0 mm 2 mps 744 mmHg 68%
07:00 +21°C° 0 mm 2 mps 744 mmHg 63%
08:00 +24°C° 0 mm 2 mps 745 mmHg 58%
09:00 +26°C° 0 mm 2 mps 744 mmHg 54%
10:00 +27°C° 0 mm 2 mps 744 mmHg 50%
11:00 +29°C° 0 mm 2 mps 744 mmHg 45%
12:00 +29°C° 0 mm 2 mps 744 mmHg 44%
13:00 +30°C° 0 mm 2 mps 744 mmHg 43%
14:00 +31°C° 0 mm 2 mps 744 mmHg 42%
15:00 +31°C° 0 mm 1 mps 743 mmHg 42%
16:00 +31°C° 0 mm 1 mps 743 mmHg 42%
17:00 +32°C° 0 mm 1 mps 742 mmHg 42%
18:00 +28°C° 5.3 mm 2 mps 742 mmHg 60%
19:00 +24°C° 5.3 mm 3 mps 743 mmHg 78%
20:00 +19°C° 5.3 mm 4 mps 743 mmHg 96%
21:00 +19°C° 2.2 mm 3 mps 743 mmHg 96%
22:00 +19°C° 2.2 mm 3 mps 743 mmHg 97%
23:00 +19°C° 2.2 mm 2 mps 744 mmHg 98%

1 August, Sunday

Time Temperature Precipitation Wind Pressure Humidity
00:00 +19°C° 0.4 mm 2 mps 744 mmHg 97%
01:00 +19°C° 0.4 mm 2 mps 744 mmHg 97%
02:00 +18°C° 0.4 mm 3 mps 743 mmHg 97%
03:00 +18°C° 0 mm 2 mps 744 mmHg 97%
04:00 +17°C° 0 mm 2 mps 744 mmHg 97%
05:00 +17°C° 0 mm 2 mps 744 mmHg 97%
06:00 +18°C° 0 mm 2 mps 744 mmHg 92%
07:00 +20°C° 0 mm 2 mps 744 mmHg 87%
08:00 +21°C° 0 mm 2 mps 745 mmHg 82%
09:00 +23°C° 0 mm 2 mps 745 mmHg 72%
10:00 +25°C° 0 mm 2 mps 745 mmHg 62%
11:00 +26°C° 0 mm 2 mps 745 mmHg 53%
12:00 +27°C° 0 mm 2 mps 745 mmHg 51%
13:00 +28°C° 0 mm 2 mps 745 mmHg 49%
14:00 +28°C° 0 mm 2 mps 745 mmHg 47%
15:00 +28°C° 0 mm 1 mps 744 mmHg 48%
16:00 +28°C° 0 mm 1 mps 744 mmHg 49%
17:00 +28°C° 0 mm 1 mps 744 mmHg 50%
18:00 +27°C° 0 mm 2 mps 743 mmHg 56%
19:00 +25°C° 0 mm 2 mps 743 mmHg 63%
20:00 +24°C° 0 mm 3 mps 742 mmHg 69%
21:00 +23°C° 1.4 mm 2 mps 742 mmHg 76%
22:00 +21°C° 1.4 mm 2 mps 742 mmHg 83%
23:00 +20°C° 1.4 mm 1 mps 742 mmHg 91%

2 August, Monday

Time Temperature Precipitation Wind Pressure Humidity
00:00 +19°C° 0.9 mm 2 mps 741 mmHg 92%
01:00 +19°C° 0.9 mm 3 mps 741 mmHg 94%
02:00 +18°C° 0.9 mm 3 mps 741 mmHg 96%
03:00 +18°C° 0.1 mm 3 mps 740 mmHg 96%
04:00 +18°C° 0.1 mm 4 mps 740 mmHg 95%
05:00 +17°C° 0.1 mm 4 mps 740 mmHg 95%
06:00 +18°C° 0 mm 4 mps 740 mmHg 94%
07:00 +19°C° 0 mm 4 mps 740 mmHg 92%
08:00 +20°C° 0 mm 5 mps 740 mmHg 90%
09:00 +20°C° 0 mm 5 mps 740 mmHg 88%
10:00 +19°C° 0 mm 5 mps 741 mmHg 87%
11:00 +19°C° 0 mm 6 mps 741 mmHg 85%
12:00 +19°C° 0.1 mm 6 mps 742 mmHg 85%
13:00 +17°C° 0.1 mm 6 mps 742 mmHg 86%
14:00 +16°C° 0.1 mm 6 mps 743 mmHg 86%
15:00 +16°C° 0.1 mm 5 mps 743 mmHg 87%
16:00 +15°C° 0.1 mm 4 mps 744 mmHg 87%
17:00 +16°C° 0.1 mm 3 mps 744 mmHg 88%
18:00 +16°C° 0 mm 3 mps 745 mmHg 89%
19:00 +14°C° 0 mm 3 mps 745 mmHg 90%
20:00 +14°C° 0 mm 3 mps 745 mmHg 91%
21:00 +13°C° 0 mm 3 mps 745 mmHg 91%
22:00 +13°C° 0 mm 3 mps 746 mmHg 91%
23:00 +13°C° 0 mm 3 mps 746 mmHg 91%

3 August, Tuesday

Time Temperature Precipitation Wind Pressure Humidity
00:00 +13°C° 0 mm 3 mps 746 mmHg 90%
01:00 +13°C° 0 mm 3 mps 746 mmHg 90%
02:00 +13°C° 0 mm 4 mps 746 mmHg 89%
03:00 +13°C° 0 mm 3 mps 746 mmHg 90%
04:00 +12°C° 0 mm 3 mps 746 mmHg 91%
05:00 +12°C° 0 mm 3 mps 746 mmHg 92%
06:00 +14°C° 0 mm 3 mps 747 mmHg 87%
07:00 +17°C° 0 mm 4 mps 747 mmHg 82%
08:00 +18°C° 0 mm 4 mps 747 mmHg 77%
09:00 +20°C° 0.1 mm 4 mps 747 mmHg 73%
10:00 +21°C° 0.1 mm 4 mps 747 mmHg 69%
11:00 +22°C° 0.1 mm 4 mps 747 mmHg 64%
12:00 +22°C° 0.4 mm 4 mps 747 mmHg 61%
13:00 +23°C° 0.4 mm 4 mps 747 mmHg 58%
14:00 +23°C° 0.4 mm 4 mps 747 mmHg 55%
15:00 +23°C° 0 mm 4 mps 747 mmHg 55%
16:00 +24°C° 0 mm 3 mps 747 mmHg 55%
17:00 +24°C° 0 mm 3 mps 747 mmHg 55%
18:00 +21°C° 0 mm 2 mps 747 mmHg 60%
19:00 +20°C° 0 mm 2 mps 747 mmHg 64%
20:00 +19°C° 0 mm 1 mps 747 mmHg 69%
21:00 +19°C° 0 mm 1 mps 747 mmHg 68%
22:00 +19°C° 0 mm 1 mps 748 mmHg 68%
23:00 +19°C° 0 mm 1 mps 748 mmHg 68%
Show more

We Need Your Consent

Meteoprog and our Service Providers may store and access personal data such as cookies, device identifiers or other similar technologies on your device and process such data to personalise content and ads, as well as provide social media features and to analyse the traffic.

  • Store and/or access information on your device

    Cookies, device identifiers or other information can be stored or accessed on your device for the purposes indicated above.

  • Personalised ads and content, ad and content measurement, audience insights, and products development

    Ads and content can be personalised based on a profile. More data can be added to better personalise ads and content. Ad and content performance can be measured. Insights about the audience who saw the ads and content can be derived. Such data can be used to develop or improve user’s experience, systems and software.

By clicking ‘I Agree’ you will allow the use of indicated cookies, device identifiers, web beacons or other similar technologies. Your settings can be changed in the browser on your device.

For certain purposes, legitimate interests may be relied on, rather than consent. You can read more about this in our Privacy and Cookie Policy.